sat.trackr.live / text

‹ back to catalog

STARLINK-32556

NORAD 61858 · 2024-202P

PAYLOAD ACTIVE UNKNOWN

§ Identity

Operator
Country
US
Launch date
2024-11-07
Launch site
AFETR
Launch vehicle
Mass (kg)
RCS (m²)

Purposes: comms

External: N2YO · Heavens-Above · Gunter

§ Orbital elements

Epoch: 2026-05-25T02:16:36.748992Z

Period
94.27 min
Inclination
43.0011°
Eccentricity
0.0001321
Mean motion
15.27568168 rev/d
Perigee alt
482.2 km
Apogee alt
484.0 km
Semi-major
6,861.2 km
B*
-1.0042e-4
RAAN
166.4224°
Arg perigee
277.3165°
Mean anomaly
82.7536°
Rev number
8,702

§ Raw data

STARLINK-325561 61858U 24202P   26145.09486978 -.00003023  00000+0 -10042-3 0  99962 61858  43.0011 166.4224 0001321 277.3165  82.7536 15.27568168 87029

JSON: /api/v1/satellites/61858 · /tle

For live sub-satellite position, see the globe view (requires WebGL).

§ Visibility from observer

Set your observer location to see the next 7 days of passes ≥ 10°. The values pass through the URL so the page stays shareable.

No JS? Fill the form by hand. The geolocation button needs JavaScript.